Dati Storici

Data ora Umidita' aria (%) Temperatura aria (°C) Rad globale (W/m²) Gonioanemometro (°) Tacoanemometro (m/s) Pioggia (mm)
10-06-2020 11:30 68.6 % 20.93 -71.641 3.084 0 0
10-06-2020 11:20 70.5 % 20.617 -70.474 3.613 0 0
10-06-2020 11:10 70.9 % 19.954 -70.919 1.793 0 0
10-06-2020 11:00 72.1 % 19.878 -74.04 1.003 0 0
10-06-2020 10:50 71.4 % 19.557 -70.444 1.956 0 0
10-06-2020 10:40 70.6 % 19.913 -71.518 1.457 0 0
10-06-2020 10:30 72.5 % 19.868 -68.08 1.033 0 0
10-06-2020 10:20 71.7 % 19.562 -63.345 0.552 0 0
10-06-2020 10:10 75.2 % 19.904 -65.764 -0.003 0 0
10-06-2020 10:00 76.6 % 19.032 -55.845 0.183 0 0
10-06-2020 09:50 78.2 % 18.683 -61.759 1.309 0 0
10-06-2020 09:40 77.7 % 18.412 -72.249 0.856 0 0
10-06-2020 09:30 82.6 % 18.983 -63.222 0.01 0 0
10-06-2020 09:20 82.7 % 18.322 -69.323 2.158 0 0
10-06-2020 09:10 84.8 % 18.571 -66.642 0.124 0 0
10-06-2020 09:00 84.9 % 17.787 -63.964 1.364 0 0
10-06-2020 08:50 85.2 % 18.533 -72.059 1.202 0 0
10-06-2020 08:40 88.2 % 18.015 -69.345 -0.003 0 0
10-06-2020 08:30 91.4 % 17.299 -61.197 0.88 0 0
10-06-2020 08:20 93.7 % 17.069 -70.668 0.357 0 0

I dati sono presentati in modo automatico a scopo informativo. In seguito a verifica i dati possono subire modifiche o essere invalidati e non riportati negli archivi definitivi.